ZHONGXING-1E

Last updated on Sun Apr 12 2026 00:02:56 GMT+0000 (Coordinated Universal Time)

1 53813U 22112A 26101.53681079 .00000000 00000+0 00000+0 0 9995 2 53813 0.0270 71.6541 0001363 251.0087 151.7191 1.00267328 13188
UTC large
Height (km)
Speed (km/s)
/
Latitude / Longitude
Inclination (degrees)
Orbital Period (minutes)
Azimuth
Elevation
Range (km)
Doppler Factor

Next 0 passes for location: London (51.5072 / 0.1276)

Sorry there are no passes over London.
ZHONGXING-1E